{"data":{"norad_id":64098,"intl_designator":"2025-110C","name":"STARLINK-34146","alt_names":[],"object_type":"PAYLOAD","status":"ACTIVE","operator":null,"country":"US","launch_date":"2025-05-23","launch_site_code":"AFWTR","launch_vehicle":null,"mission":null,"orbit_class":"UNKNOWN","rcs_meters":null,"size_class":null,"mass_kg":null,"dimensions":null,"purposes":["comms"],"wikipedia_slug":null,"has_3d_model":false,"image_url":null,"decayed_at":null,"tle_current":{"epoch":"2026-09-20T04:44:37.851648Z","epoch_age_seconds":169704,"freshness":"FRESH","line1":"1 64098U 25110C   26263.19766032  .00014431  00000+0  43735-3 0  9996","line2":"2 64098  53.1574 198.9664 0001247 100.0979 260.0164 15.34405339 75713","mean_motion":15.34405339,"eccentricity":0.0001247,"inclination_deg":53.1574,"raan_deg":198.9664,"arg_perigee_deg":100.0979,"mean_anomaly_deg":260.0164,"bstar":0.00043735,"rev_number":7571,"period_min":93.847431535821,"perigee_km":461.83432082083,"apogee_km":463.54042241912,"semimajor_km":6840.82437162,"source":"CELESTRAK","updated_at":"2026-09-21T09:00:35.226676Z"}}}